ORBITAL FACTORY 2 (OF-2) (45113 NORAD) Tracking and Keplerian Element Data

This shows tracking and keplerian element data for the satellite.

Feedback or suggestion? Click here.




ElementValue
Catalog45113
NameORBITAL FACTORY 2 (OF-2)
Epoch Orbit15758
Epoch Day324.54438038
Epoch Year2022
RAAN6.2541
Inclination51.6353
Eccentricity0.0011441
Argument of Perigee24.9019
Mean Anonmoly335.2522
Mean Motion15.56784141
Decay Rate0.00042423
L11 45113U 19071C 22324.54438038 .00042423 00000+0 58323-3 0 9998
L22 45113 51.6353 6.2541 0011441 24.9019 335.2522 15.56784141157583



Live tracking and technical data element details for ORBITAL FACTORY 2 (OF-2) (NORAD 45113). ORBITAL FACTORY 2 (OF-2) can be tracked NOW for your location showing map with azimuth and elevation plus other details from your city location.







IsCatalogInMostPopularTable: catalog: 45113, numindb: 207
Update: records affected: 1



GetName: 45113 ORBITAL FACTORY 2 (OF-2)

Hit Count: updated at: Fri, 02 Dec 2022 12:00:11 GMT